• In Czech Republic
  • List of Countries
  • For 7 days
  • Water Temperature
  • Satellite Maps
  • Weather Map
  • Weather Widgets
  • user-avatar
    Login

    Hourly Weather Kandahar

    Today, 11 December, Monday

    Time Temperature Precipitation Wind Pressure Humidity
    00:00 +7°C° 0 mm 1 mps 674 mmHg 22%
    01:00 +6°C° 0 mm 1 mps 674 mmHg 23%
    02:00 +6°C° 0 mm 1 mps 674 mmHg 24%
    03:00 +5°C° 0 mm 1 mps 674 mmHg 25%
    04:00 +5°C° 0 mm 1 mps 674 mmHg 28%
    05:00 +5°C° 0 mm 1 mps 674 mmHg 28%
    06:00 +5°C° 0 mm 1 mps 674 mmHg 29%
    07:00 +4°C° 0 mm 1 mps 674 mmHg 29%
    08:00 +6°C° 0 mm 1 mps 675 mmHg 26%
    09:00 +8°C° 0 mm 1 mps 675 mmHg 23%
    10:00 +11°C° 0 mm 1 mps 676 mmHg 19%
    11:00 +12°C° 0 mm 2 mps 675 mmHg 18%
    12:00 +12°C° 0 mm 2 mps 675 mmHg 17%
    13:00 +12°C° 0 mm 3 mps 675 mmHg 16%
    14:00 +12°C° 0 mm 3 mps 674 mmHg 17%
    15:00 +11°C° 0 mm 3 mps 674 mmHg 18%
    16:00 +11°C° 0 mm 3 mps 674 mmHg 18%
    17:00 +10°C° 0 mm 3 mps 674 mmHg 21%
    18:00 +8°C° 0 mm 2 mps 674 mmHg 23%
    19:00 +7°C° 0 mm 2 mps 674 mmHg 25%
    20:00 +7°C° 0 mm 2 mps 674 mmHg 26%
    21:00 +6°C° 0 mm 2 mps 674 mmHg 27%
    22:00 +5°C° 0 mm 2 mps 674 mmHg 28%
    23:00 +6°C° 0 mm 1 mps 674 mmHg 29%

    Tomorrow, 12 December, Tuesday

    Time Temperature Precipitation Wind Pressure Humidity
    00:00 +5°C° 0 mm 1 mps 674 mmHg 30%
    01:00 +4°C° 0 mm 1 mps 674 mmHg 31%
    02:00 +4°C° 0 mm 1 mps 673 mmHg 32%
    03:00 +4°C° 0 mm 1 mps 673 mmHg 33%
    04:00 +3°C° 0 mm 1 mps 673 mmHg 34%
    05:00 +3°C° 0 mm 1 mps 674 mmHg 34%
    06:00 +3°C° 0 mm 1 mps 674 mmHg 34%
    07:00 +3°C° 0 mm 1 mps 674 mmHg 35%
    08:00 +5°C° 0 mm 1 mps 675 mmHg 31%
    09:00 +7°C° 0 mm 1 mps 675 mmHg 26%
    10:00 +9°C° 0 mm 1 mps 676 mmHg 22%
    11:00 +9°C° 0 mm 2 mps 675 mmHg 21%
    12:00 +10°C° 0 mm 2 mps 675 mmHg 20%
    13:00 +10°C° 0 mm 2 mps 674 mmHg 18%
    14:00 +10°C° 0 mm 2 mps 674 mmHg 18%
    15:00 +10°C° 0 mm 2 mps 674 mmHg 19%
    16:00 +10°C° 0 mm 2 mps 674 mmHg 19%
    17:00 +8°C° 0 mm 2 mps 674 mmHg 21%
    18:00 +8°C° 0 mm 1 mps 674 mmHg 23%
    19:00 +6°C° 0 mm 1 mps 675 mmHg 26%
    20:00 +6°C° 0 mm 1 mps 675 mmHg 27%
    21:00 +5°C° 0 mm 1 mps 675 mmHg 28%
    22:00 +5°C° 0 mm 1 mps 675 mmHg 29%
    23:00 +4°C° 0 mm 1 mps 675 mmHg 30%

    Day after tomorrow, 13 December, Wednesday

    Time Temperature Precipitation Wind Pressure Humidity
    00:00 +4°C° 0 mm 1 mps 675 mmHg 31%
    01:00 +4°C° 0 mm 1 mps 675 mmHg 31%
    02:00 +3°C° 0 mm 1 mps 675 mmHg 32%
    03:00 +3°C° 0 mm 1 mps 675 mmHg 33%
    04:00 +2°C° 0 mm 1 mps 675 mmHg 34%
    05:00 +2°C° 0 mm 1 mps 675 mmHg 35%
    06:00 +2°C° 0 mm 1 mps 675 mmHg 35%
    07:00 +2°C° 0 mm 1 mps 676 mmHg 35%
    08:00 +4°C° 0 mm 1 mps 676 mmHg 31%
    09:00 +6°C° 0 mm 1 mps 677 mmHg 27%
    10:00 +8°C° 0 mm 1 mps 678 mmHg 24%
    11:00 +8°C° 0 mm 1 mps 677 mmHg 22%
    12:00 +9°C° 0 mm 1 mps 676 mmHg 21%
    13:00 +10°C° 0 mm 1 mps 676 mmHg 20%
    14:00 +9°C° 0 mm 1 mps 676 mmHg 20%
    15:00 +9°C° 0 mm 1 mps 675 mmHg 20%
    16:00 +9°C° 0 mm 1 mps 675 mmHg 20%
    17:00 +8°C° 0 mm 1 mps 675 mmHg 23%
    18:00 +6°C° 0 mm 1 mps 675 mmHg 25%
    19:00 +5°C° 0 mm 1 mps 675 mmHg 28%
    20:00 +5°C° 0 mm 1 mps 676 mmHg 29%
    21:00 +4°C° 0 mm 1 mps 676 mmHg 30%
    22:00 +4°C° 0 mm 1 mps 676 mmHg 31%
    23:00 +3°C° 0 mm 1 mps 676 mmHg 33%

    14 December, Thursday

    Time Temperature Precipitation Wind Pressure Humidity
    00:00 +3°C° 0 mm 1 mps 675 mmHg 34%
    01:00 +1°C° 0 mm 0 mps 675 mmHg 36%
    02:00 +1°C° 0 mm 0 mps 675 mmHg 36%
    03:00 0°C° 0 mm 0 mps 675 mmHg 37%
    04:00 0°C° 0 mm 0 mps 675 mmHg 38%
    05:00 +1°C° 0 mm 1 mps 675 mmHg 38%
    06:00 +1°C° 0 mm 1 mps 676 mmHg 37%
    07:00 +1°C° 0 mm 1 mps 676 mmHg 37%
    08:00 +3°C° 0 mm 1 mps 677 mmHg 33%
    09:00 +5°C° 0 mm 1 mps 678 mmHg 29%
    10:00 +7°C° 0 mm 1 mps 679 mmHg 24%
    11:00 +8°C° 0 mm 1 mps 678 mmHg 23%
    12:00 +8°C° 0 mm 2 mps 678 mmHg 22%
    13:00 +8°C° 0 mm 2 mps 678 mmHg 21%
    14:00 +8°C° 0 mm 2 mps 678 mmHg 21%
    15:00 +8°C° 0 mm 2 mps 678 mmHg 21%
    16:00 +8°C° 0 mm 2 mps 677 mmHg 22%
    17:00 +7°C° 0 mm 1 mps 678 mmHg 24%
    18:00 +6°C° 0 mm 1 mps 678 mmHg 27%
    19:00 +5°C° 0 mm 1 mps 678 mmHg 29%
    20:00 +4°C° 0 mm 1 mps 678 mmHg 31%
    21:00 +3°C° 0 mm 0 mps 678 mmHg 32%
    22:00 +2°C° 0 mm 0 mps 678 mmHg 33%
    23:00 +2°C° 0 mm 0 mps 678 mmHg 34%

    15 December, Friday

    Time Temperature Precipitation Wind Pressure Humidity
    00:00 +3°C° 0 mm 1 mps 678 mmHg 34%
    01:00 +2°C° 0 mm 1 mps 678 mmHg 35%
    02:00 +2°C° 0 mm 1 mps 678 mmHg 35%
    03:00 +2°C° 0 mm 1 mps 678 mmHg 35%
    04:00 +1°C° 0 mm 2 mps 678 mmHg 34%
    05:00 +1°C° 0 mm 2 mps 678 mmHg 34%
    06:00 +2°C° 0 mm 2 mps 679 mmHg 34%
    07:00 +2°C° 0 mm 2 mps 679 mmHg 33%
    08:00 +3°C° 0 mm 3 mps 680 mmHg 29%
    09:00 +5°C° 0 mm 3 mps 680 mmHg 25%
    10:00 +8°C° 0 mm 3 mps 681 mmHg 21%
    11:00 +9°C° 0 mm 3 mps 680 mmHg 19%
    12:00 +9°C° 0 mm 3 mps 680 mmHg 17%
    13:00 +10°C° 0 mm 3 mps 679 mmHg 16%
    14:00 +10°C° 0 mm 2 mps 679 mmHg 16%
    15:00 +10°C° 0 mm 2 mps 679 mmHg 15%
    16:00 +10°C° 0 mm 2 mps 679 mmHg 15%
    17:00 +9°C° 0 mm 2 mps 679 mmHg 17%
    18:00 +8°C° 0 mm 2 mps 679 mmHg 18%
    19:00 +7°C° 0 mm 2 mps 679 mmHg 19%
    20:00 +6°C° 0 mm 2 mps 679 mmHg 20%
    21:00 +5°C° 0 mm 3 mps 679 mmHg 21%
    22:00 +5°C° 0 mm 3 mps 679 mmHg 22%
    23:00 +4°C° 0 mm 3 mps 679 mmHg 23%

    16 December, Saturday

    Time Temperature Precipitation Wind Pressure Humidity
    00:00 +4°C° 0 mm 3 mps 679 mmHg 24%
    01:00 +4°C° 0 mm 3 mps 678 mmHg 25%
    02:00 +4°C° 0 mm 3 mps 678 mmHg 26%
    03:00 +3°C° 0 mm 3 mps 678 mmHg 26%
    04:00 +3°C° 0 mm 3 mps 678 mmHg 27%
    05:00 +3°C° 0 mm 3 mps 678 mmHg 26%
    06:00 +3°C° 0 mm 3 mps 679 mmHg 26%
    07:00 +3°C° 0 mm 3 mps 679 mmHg 26%
    08:00 +7°C° 0 mm 3 mps 680 mmHg 22%
    09:00 +9°C° 0 mm 3 mps 680 mmHg 19%
    10:00 +11°C° 0 mm 4 mps 680 mmHg 15%
    11:00 +12°C° 0 mm 3 mps 680 mmHg 14%
    12:00 +13°C° 0 mm 3 mps 679 mmHg 13%
    13:00 +15°C° 0 mm 2 mps 679 mmHg 12%
    14:00 +15°C° 0 mm 2 mps 679 mmHg 12%
    15:00 +14°C° 0 mm 2 mps 678 mmHg 13%
    16:00 +14°C° 0 mm 1 mps 678 mmHg 13%
    17:00 +13°C° 0 mm 1 mps 678 mmHg 14%
    18:00 +12°C° 0 mm 1 mps 679 mmHg 15%
    19:00 +10°C° 0 mm 2 mps 679 mmHg 16%
    20:00 +10°C° 0 mm 2 mps 679 mmHg 17%
    21:00 +10°C° 0 mm 2 mps 679 mmHg 17%
    22:00 +10°C° 0 mm 2 mps 679 mmHg 17%
    23:00 +10°C° 0 mm 2 mps 679 mmHg 18%
    Show more